Location: Krasnoyarskiy Pitomnik
(51.1333°N, 71.6167°E)
Time: 06:44:44
(UTC+00:00)

Transit 4A - Pass Details

Date: 17 April 2024
Orbit: 871 x 971 km, 66.8° (Epoch: 28 May)

Event Time Altitude Azimuth Distance (km) Brightness Sun altitude
Rises 18:24:50 0° 315° (NW) 3,470 11.8 -27.1°
Reaches altitude 10° 18:27:45 10° 302° (WNW) 2,528 10.7 -27.2°
Enters shadow 18:32:14 24° 252° (WSW) 1,752 9.2 -27.4°
